DateTimeUTC,F1_A11,F1_S11,BsB_S11,BsG_S11,BsR_S11,BbsB_S11,BbsG_S11,BbsR_S11,BaB_A11,BaG_A11,BaR_A11,Tu_S11,T_S11,Uu_S11,U_S11,P_S11,T1_A11
2021-12-26T02:00:00Z,00000200,21000000,,,,,,,0000.18,-000.11,-000.00,19.5,26.6,,00.0,0656.9,31.2
2021-12-26T02:01:00Z,00000200,21000000,,,,,,,0000.04,0000.33,0000.19,19.5,26.6,,00.0,0656.9,31.2
2021-12-26T02:02:00Z,00000200,21000000,,,,,,,0000.09,-000.26,-000.16,19.5,26.7,,00.0,0656.9,31.2
2021-12-26T02:03:00Z,00000200,61000000,,,,,,,0000.21,0000.45,0000.09,19.5,26.7,,00.0,0656.9,31.2
2021-12-26T02:04:00Z,00000200,41000000,0000.50,0000.79,0000.42,0000.41,0000.22,0000.15,0000.15,0000.29,0000.06,19.8,26.6,,00.0,0657.8,31.2
2021-12-26T02:05:00Z,00000200,01000000,0000.99,0000.35,0000.42,0000.59,0000.21,-000.07,0000.62,0000.40,0000.66,19.9,26.6,,00.0,0657.8,31.2
2021-12-26T02:06:00Z,00000200,01000000,0000.62,0000.89,0000.27,0000.20,0000.29,0000.22,0000.58,0000.37,0000.20,19.8,26.5,,00.0,0657.8,31.2
2021-12-26T02:07:00Z,00000200,01000000,0000.26,0000.76,0000.29,-000.65,-000.06,0000.08,0000.20,0000.26,0000.26,19.7,26.5,,00.0,0657.7,31.1
2021-12-26T02:08:00Z,00000200,01000000,0000.39,0000.34,0000.40,0000.10,-000.18,0000.23,0000.50,0000.60,0000.31,19.6,26.4,,00.0,0657.7,31.1
2021-12-26T02:09:00Z,00000200,01000000,0000.33,0000.41,0000.60,-000.42,0000.69,0000.01,0001.00,0000.91,0000.53,19.5,26.4,,00.0,0657.7,31.1
2021-12-26T02:10:00Z,00000200,01000000,0001.38,0000.61,0000.47,0000.25,0000.15,0000.25,0000.47,0000.16,0000.49,19.4,26.3,,00.0,0657.6,31.1
2021-12-26T02:11:00Z,00000200,01000000,-000.06,0000.47,0000.10,0000.22,-000.17,0000.17,0000.14,0000.22,-000.11,19.4,26.3,,00.0,0657.6,31.1
2021-12-26T02:12:00Z,00000200,01000000,0000.39,0001.17,0000.38,-000.00,0000.08,0000.32,0000.21,0000.27,0000.45,19.4,26.2,,00.0,0657.6,31.1
2021-12-26T02:13:00Z,00000200,01000000,0000.70,0000.78,0000.21,0000.27,-000.08,0000.50,0000.46,0000.08,0000.36,19.4,26.2,,00.0,0657.6,31.1
2021-12-26T02:14:00Z,00000200,01000000,0001.02,0000.48,0000.16,-000.20,0000.13,0000.13,0000.33,0000.69,-000.14,19.4,26.2,,00.0,0657.7,31.1
2021-12-26T02:15:00Z,00000200,01000000,0000.96,0000.78,0000.34,-000.26,0000.23,0000.27,0000.50,0000.48,0000.36,19.4,26.2,,00.0,0657.7,31.1
2021-12-26T02:16:00Z,00000200,01000000,0000.16,0000.62,0000.67,0000.69,-000.30,0000.22,0000.67,0000.53,0000.67,19.5,26.2,,00.0,0657.7,31.1
2021-12-26T02:17:00Z,00000200,01000000,0000.17,0000.67,0000.33,-000.46,0000.02,0000.24,0000.54,0000.71,0000.35,19.5,26.2,,00.0,0657.7,31.1
2021-12-26T02:18:00Z,00000200,01000000,0000.51,0000.31,0000.04,-000.15,0000.12,-000.17,0000.26,0000.18,0000.55,19.6,26.2,,00.0,0657.6,31.1
2021-12-26T02:19:00Z,00000200,01000000,0000.85,0000.37,0000.22,-000.26,-000.04,0000.08,0000.42,0000.21,0000.04,19.6,26.3,,00.0,0657.6,31.1
2021-12-26T02:20:00Z,00000200,01000000,0000.87,0000.39,0000.11,0000.09,0000.13,-000.03,0000.22,0000.46,-000.12,19.6,26.3,,00.0,0657.6,31.1
2021-12-26T02:21:00Z,00000200,01000000,0000.31,0000.38,0000.00,0000.39,-000.02,-000.08,0000.26,0000.06,0000.51,19.7,26.3,,00.0,0657.6,31.2
2021-12-26T02:22:00Z,00000200,01000000,0000.68,0000.47,0000.64,0000.39,0000.24,0000.38,0000.43,0000.56,0000.06,19.7,26.3,,00.0,0657.6,31.1
2021-12-26T02:23:00Z,00000200,01000000,0000.17,0000.89,-000.14,0000.25,-000.10,-000.29,0000.31,0000.36,0000.39,19.6,26.3,,00.0,0657.6,31.1
2021-12-26T02:24:00Z,00000200,01000000,0000.09,0000.76,0000.26,0000.30,0000.32,0000.16,0000.61,0000.09,0000.43,19.5,26.2,,00.0,0657.5,31.1
2021-12-26T02:25:00Z,00000200,01000000,0000.59,0000.60,0000.47,-000.91,0000.05,-000.10,-000.08,0000.23,-000.11,19.4,26.2,,00.0,0657.5,31.1
2021-12-26T02:26:00Z,00000200,01000000,0000.14,0000.72,0000.34,-000.29,0000.12,-000.06,0000.17,-000.23,-000.20,19.4,26.1,,00.0,0657.5,31.1
2021-12-26T02:27:00Z,00000200,01000000,0001.18,0000.48,0000.47,0000.16,0000.06,0000.08,0000.33,0000.58,0000.31,19.3,26.1,,00.0,0657.5,31.1
2021-12-26T02:28:00Z,00000200,01000000,-000.02,0000.44,0000.25,-000.04,-000.03,-000.08,0000.27,0000.31,0000.23,19.3,26.1,,00.0,0657.5,31.1
2021-12-26T02:29:00Z,00000200,01000000,0000.61,0000.55,0000.34,-000.14,-000.03,0000.05,0000.68,0000.49,0000.77,19.4,26.1,,00.0,0657.5,31.1
2021-12-26T02:30:00Z,00000200,01000000,0000.32,0000.75,-000.12,-000.56,-000.22,0000.18,0000.65,0000.91,0000.20,19.4,26.1,,00.0,0657.5,31.1
2021-12-26T02:31:00Z,00000200,01000000,0000.50,0000.41,0000.07,0000.02,0000.13,-000.36,0000.23,0000.18,0000.13,19.5,26.1,,00.0,0657.5,31.1
2021-12-26T02:32:00Z,00000200,01000000,0000.15,0000.85,0000.16,-000.07,0000.03,-000.03,0000.66,0000.29,0000.30,19.5,26.1,,00.0,0657.5,31.1
2021-12-26T02:33:00Z,00000200,01000000,-000.48,0000.39,0000.04,0000.33,-000.02,0000.07,0000.17,0000.37,0000.15,19.6,26.1,,00.0,0657.4,31.2
2021-12-26T02:34:00Z,00000200,01000000,0000.46,0000.72,0000.33,-000.20,-000.18,0000.22,0000.42,0000.18,0000.55,19.6,26.2,,00.0,0657.4,31.2
2021-12-26T02:35:00Z,00000200,01000000,0000.41,0000.16,0000.38,0000.19,-000.16,-000.09,-000.04,0000.32,-000.25,19.6,26.2,,00.0,0657.4,31.1
2021-12-26T02:36:00Z,00000200,01000000,0000.64,0000.20,0000.46,0000.11,0000.03,0000.03,0000.63,0000.36,0000.46,19.7,26.2,,00.0,0657.4,31.2
2021-12-26T02:37:00Z,00000200,01000000,-000.37,0000.47,0000.32,0000.15,-000.08,-000.10,0000.23,0000.12,0000.30,19.7,26.2,,00.0,0657.4,31.2
2021-12-26T02:38:00Z,00000200,01000000,-000.12,0000.23,0000.33,-000.28,0000.15,0000.16,0000.38,0001.06,0000.21,19.7,26.2,,00.0,0657.4,31.2
2021-12-26T02:39:00Z,00000200,01000000,0000.34,0000.64,0000.16,-000.41,0000.37,0000.27,0000.66,0000.03,0000.63,19.8,26.3,,00.0,0657.4,31.2
2021-12-26T02:40:00Z,00000200,01000000,0000.47,0000.72,0000.20,-000.44,0000.16,0000.29,0000.47,0000.60,0000.03,19.8,26.3,,00.0,0657.4,31.2
2021-12-26T02:41:00Z,00000200,01000000,0000.60,0000.33,0000.36,0000.55,0000.11,-000.07,0000.30,0000.03,0000.22,19.8,26.3,,00.0,0657.4,31.2
2021-12-26T02:42:00Z,00000200,01000000,0002.19,0000.57,0000.03,-000.06,-000.29,-000.24,0000.49,0000.44,0000.04,19.7,26.3,,00.0,0657.4,31.2
2021-12-26T02:43:00Z,00000200,01000000,0000.65,0000.64,0000.06,0000.52,-000.10,0000.22,0000.72,0000.43,0000.74,19.7,26.3,,00.0,0657.3,31.2
2021-12-26T02:44:00Z,00000200,01000000,0000.84,0000.75,0000.18,-000.08,-000.00,0000.06,0000.51,0000.52,0000.41,19.8,26.3,,00.0,0657.4,31.2
2021-12-26T02:45:00Z,00000200,01000000,0000.15,0000.55,0000.13,0000.43,0000.01,0000.20,-000.09,0000.37,0000.16,19.8,26.2,,00.0,0657.4,31.2
2021-12-26T02:46:00Z,00000200,01000000,0000.69,0000.27,0000.73,-000.12,0000.05,0000.44,0000.51,0000.58,0000.17,19.8,26.3,,00.0,0657.4,31.2
2021-12-26T02:47:00Z,00000200,01000000,0000.71,0000.79,0000.12,-000.37,0000.22,0000.14,0000.42,-000.44,0000.02,19.9,26.3,,00.0,0657.4,31.2
2021-12-26T02:48:00Z,00000200,01000000,0000.03,0000.26,0000.42,0000.38,-000.14,0000.34,0000.01,0000.46,0000.24,19.9,26.3,,00.0,0657.3,31.2
2021-12-26T02:49:00Z,00000200,01000000,0001.17,0000.39,-000.26,-000.18,-000.19,0000.20,0000.47,0000.42,0000.33,20.0,26.3,,00.0,0657.3,31.2
2021-12-26T02:50:00Z,00000200,01000000,0001.15,0000.55,0000.08,0000.13,-000.32,0000.03,0000.20,0000.25,0000.12,20.0,26.4,,00.0,0657.3,31.2
2021-12-26T02:51:00Z,00000200,01000000,0000.47,0000.63,0000.04,-000.39,-000.18,-000.03,0000.43,0000.55,0000.14,20.0,26.4,,00.0,0657.3,31.2
2021-12-26T02:52:00Z,00000200,01000000,0000.65,0000.21,0000.32,0000.39,-000.23,0000.19,0000.39,0000.22,0000.66,20.1,26.4,,00.0,0657.2,31.2
2021-12-26T02:53:00Z,00000200,01000000,0000.18,0000.54,0000.19,-000.20,-000.09,0000.03,0000.32,0000.33,-000.01,20.1,26.4,,00.0,0657.2,31.2
2021-12-26T02:54:00Z,00000200,01000000,-000.20,0000.19,0000.34,-000.49,0000.50,0000.35,0000.23,0000.06,-000.14,20.1,26.5,,00.0,0657.2,31.2
2021-12-26T02:55:00Z,00000200,01000000,0000.37,0000.42,0000.07,-000.47,0000.39,0000.33,0000.53,0000.38,0000.54,20.0,26.4,,00.0,0657.2,31.2
2021-12-26T02:56:00Z,00000200,01000000,0000.77,0000.66,-000.10,0000.16,-000.07,0000.02,-000.14,-000.14,-000.29,19.9,26.4,,00.0,0657.2,31.2
2021-12-26T02:57:00Z,00000200,41000000,,,,,,,-000.65,-000.91,-000.29,19.9,26.4,,00.0,0657.2,31.2
2021-12-26T02:58:00Z,00000200,61000000,,,,,,,0000.23,0000.68,0000.22,19.5,26.5,,00.0,0656.2,31.2
2021-12-26T02:59:00Z,00000200,21000000,,,,,,,0000.53,0000.37,0000.47,19.5,26.6,,00.0,0656.2,31.1
